Location: Angwan Shehu
(11.2514°N, 7.4613°E)
Time: 05:34:04
(UTC+00:00)

SR - Pass Details

Date: 20 April 2021
Orbit: 573 x 882 km, 66.7° (Epoch: 12 May)

Event Time Altitude Azimuth Distance (km) Brightness Sun altitude
Rises 06:24:02 0° 224° (SW) 3,117 ? 15.5°
Reaches altitude 10° 06:26:35 10° 236° (SW) 2,250 ? 16.1°
Maximum altitude 06:30:59 28° 294° (WNW) 1,438 ? 17.2°
Drops below altitude 10° 06:35:42 10° 352° (N) 2,416 ? 18.3°
Sets 06:38:34 0° 4° (N) 3,391 ? 19.0°
